Temperature
19 18 19 18 18 19 19 19 19 19 18 18 18 18 18 18 18 18 18 18 18 18 18 18 18 18 18 18 18 18 18 18 18 17 17 17 17 17 17 17 16 16 17
19 18 19 18 19 19 19 19 19 19 18 18 18 18 18 18 18 18 18 18 18 18 18 18 18 18 18 18 18 18 17 17 17 17 17 17 17 17 17 17 16 17 17
19 18 18 18 19 19 19 19 18 18 18 18 18 18 18 18 18 18 18 18 18 18 18 18 18 18 18 18 18 17 17 17 17 17 17 16 17 17 17 17 17 17 17
19 18 18 19 19 19 18 18 18 18 18 18 18 18 18 18 18 18 18 18 18 18 18 18 18 18 18 18 18 17 17 17 17 17 17 16 16 17 17 17 17 17 17
19 18 18 19 19 18 18 18 18 18 18 18 18 18 18 18 18 18 18 18 18 18 18 18 18 18 18 18 17 17 17 17 17 17 16 16 16 17 17 17 17 17 17
19 19 18 19 19 18 18 18 18 18 18 18 18 18 18 18 18 18 18 18 18 18 18 18 18 18 18 17 17 17 17 17 17 17 16 16 16 17 17 17 17 17 17
19 19 18 19 18 18 18 18 18 18 18 18 18 18 18 18 18 18 18 18 18 18 18 18 17 17 17 17 17 17 17 17 17 16 16 16 16 17 17 17 17 17 17
19 19 18 19 18 18 18 18 18 18 18 18 18 18 18 18 18 17 18 18 18 17 17 17 17 17 17 17 17 17 17 17 17 17 16 16 17 17 17 17 17 17 17
19 19 18 18 18 18 18 18 18 18 18 18 18 18 18 18 17 17 17 17 17 17 17 17 17 17 17 17 17 17 17 17 17 16 16 16 17 17 17 17 17 17 17
19 19 18 18 18 17 17 18 18 18 18 18 18 18 18 18 18 18 17 17 17 17 17 17 17 17 17 17 17 17 17 17 17 17 17 17 17 17 17 17 17 17 17
18 18 19 18 18 18 18 18 18 18 18 18 18 18 18 17 17 17 17 17 17 17 17 17 17 17 17 17 17 17 17 17 17 17 17 17 17 17 17 17 17 17 16
19 19 18 18 18 18 18 17 17 17 17 17 17 17 17 17 17 17 17 18 17 17 17 17 17 17 17 17 17 17 17 17 17 17 17 17 17 17 17 17 17 17 16
19 19 18 18 18 18 18 18 17 17 17 17 17 17 17 17 17 17 17 17 17 17 17 17 17 17 17 17 17 17 17 17 17 17 17 17 17 17 17 17 17 17 17
19 19 18 18 18 18 18 18 17 17 17 17 17 17 17 17 17 17 17 17 17 17 17 17 17 17 17 17 17 17 17 17 17 17 17 17 17 17 17 17 17 17 17
19 19 19 18 18 18 18 18 18 17 18 17 17 17 17 17 17 17 17 17 17 17 17 17 17 17 17 17 17 17 17 17 17 17 17 17 17 17 17 17 17 16 16
19 19 19 19 19 19 18 18 18 18 18 18 17 17 17 17 17 17 17 17 17 17 17 17 17 17 17 17 17 17 17 17 17 17 17 17 17 17 17 17 16 16 16
20 19 19 19 19 19 18 18 18 18 18 17 17 17 17 17 17 17 17 17 17 17 17 17 17 17 17 17 17 17 17 17 17 17 17 17 17 17 17 17 17 16 16
20 20 20 19 19 19 19 18 18 18 18 18 17 17 17 17 17 18 17 17 17 17 17 17 17 17 17 17 17 17 17 17 17 17 17 17 17 16 17 17 17 17 17
20 20 20 19 19 19 19 18 18 18 18 18 18 18 17 17 17 18 17 17 17 17 17 17 17 17 17 17 17 17 17 17 17 17 17 17 17 17 16 17 17 17 17
20 20 20 20 19 19 18 18 18 18 18 18 18 18 18 18 18 18 18 17 17 17 17 17 17 17 17 17 17 17 17 17 17 17 17 17 17 17 17 16 16 17 17
20 20 20 20 19 19 19 18 18 18 18 18 18 18 18 18 18 18 18 18 18 18 17 17 17 17 17 17 17 17 17 17 17 17 17 17 17 17 17 17 16 16 16
21 20 20 20 20 19 19 19 18 18 18 18 18 18 18 18 18 18 18 18 18 18 17 17 17 17 17 17 17 18 18 18 18 18 17 17 17 17 17 17 17 17 17
21 21 20 20 20 20 19 19 18 18 18 18 18 18 18 18 18 18 18 18 18 18 17 17 17 17 17 17 17 18 18 18 18 18 18 17 17 17 17 17 17 17 17
21 21 21 21 20 20 19 19 19 18 18 18 18 18 18 18 18 18 18 18 18 17 18 17 17 17 17 17 17 17 17 18 18 18 18 18 17 17 17 17 17 17 17
22 21 21 21 20 20 20 19 19 18 18 18 18 18 18 18 18 18 18 18 18 17 17 17 17 17 17 17 17 17 17 17 17 17 18 18 18 18 17 17 17 17 17
22 21 21 21 21 20 20 19 19 19 18 18 18 18 18 18 18 18 17 18 18 17 17 17 17 17 17 17 17 17 17 17 18 18 18 18 18 18 17 17 17 17 17
Wind_Speed
9 11 13 11 12 12 12 13 14 14 14 14 14 14 14 13 13 13 12 13 13 13 13 13 13 13 13 14 15 15 14 15 15 16 17 16 16 16 16 15 14 16 16
12 13 13 11 12 12 13 13 13 14 14 13 13 13 13 13 12 12 12 12 12 13 13 13 13 13 13 14 14 15 14 14 15 16 16 16 15 14 13 11 11 15 15
13 14 14 12 12 12 13 13 13 13 13 13 12 12 12 12 12 12 12 11 12 12 12 12 12 13 13 14 15 14 14 14 15 14 14 14 14 13 13 13 15 15 14
13 14 13 14 12 12 12 13 13 13 12 12 12 12 12 12 12 11 11 11 11 11 12 12 12 13 14 14 14 14 13 14 13 12 10 12 13 14 13 14 14 14 13
12 13 14 13 12 12 12 12 12 12 12 11 11 11 11 11 11 11 11 11 11 11 11 12 12 13 13 13 13 13 13 12 10 7 10 11 12 13 13 13 13 13 13
13 13 15 12 12 12 11 11 11 11 11 10 10 10 11 10 11 11 10 10 11 11 11 12 12 13 13 13 13 13 12 11 9 9 10 10 12 12 12 12 12 12 12
12 13 15 12 12 11 11 11 11 10 10 9 9 10 10 10 11 10 10 10 10 11 11 12 12 12 12 12 11 11 10 8 7 9 9 9 11 12 11 12 12 12 11
11 12 15 13 11 11 10 10 10 10 9 9 8 9 10 10 10 10 10 10 11 11 11 11 11 11 12 11 11 10 9 7 9 9 8 10 12 11 11 11 11 11 11
11 11 12 13 12 11 10 9 9 9 9 8 8 9 9 9 10 10 10 10 11 10 10 10 11 11 11 11 10 10 7 4 7 8 8 9 12 10 10 10 10 10 10
9 9 9 9 10 10 11 10 9 8 8 8 8 8 9 10 10 10 11 10 10 10 10 10 9 10 11 10 10 9 8 6 7 8 8 11 12 10 10 10 9 9 10
8 7 8 9 8 8 9 10 9 9 8 8 8 8 7 8 9 9 10 10 9 9 10 9 9 9 10 11 9 9 8 5 7 6 7 13 11 10 10 9 9 9 9
10 9 7 7 7 7 6 8 7 7 8 6 6 7 6 6 5 7 11 8 8 9 9 9 8 9 8 9 10 9 6 6 6 6 9 12 10 9 9 9 9 9 9
10 9 8 7 6 6 5 5 5 5 5 6 6 5 5 5 6 6 7 8 8 9 7 9 9 6 5 5 6 6 5 5 5 5 10 12 10 10 9 9 9 9 9
9 9 8 8 7 5 4 5 5 5 5 5 6 5 5 4 4 4 4 5 6 5 5 5 5 4 4 5 4 4 4 4 4 4 9 11 10 9 9 9 9 9 9
9 9 9 8 7 6 5 4 5 4 4 5 5 5 5 4 4 4 3 3 4 4 5 4 4 4 4 5 4 5 4 3 3 4 8 11 10 9 10 10 10 10 9
10 10 9 9 8 7 5 4 3 4 4 4 5 5 5 4 4 3 4 3 3 4 4 4 4 4 4 4 4 4 4 4 4 5 6 10 11 11 10 11 11 11 10
10 10 10 9 9 8 7 6 5 5 5 5 5 6 5 5 4 4 3 4 4 4 5 4 4 4 4 4 5 5 4 4 4 5 6 6 9 12 12 12 11 11 11
10 10 10 9 9 9 7 6 5 5 4 5 5 5 6 5 5 5 4 4 4 5 5 4 4 4 3 4 4 4 4 4 5 6 7 7 6 8 12 13 12 12 12
10 10 10 9 9 9 7 6 6 5 5 5 5 6 6 7 6 6 4 3 5 5 5 5 5 4 4 3 4 4 4 4 4 6 6 7 7 7 8 12 14 13 12
10 10 10 10 9 8 7 7 6 5 5 6 6 6 7 7 7 6 6 5 6 5 5 4 4 4 3 4 4 3 3 4 5 5 6 7 7 8 9 8 10 13 15
10 10 11 10 9 8 7 8 7 6 6 6 6 7 8 8 8 7 6 5 6 5 5 6 5 6 5 4 4 4 4 6 6 5 6 6 7 7 7 8 8 8 11
11 11 11 11 11 10 8 7 5 5 5 6 5 6 8 8 8 8 7 6 6 6 6 6 6 6 5 5 4 3 3 5 6 7 6 7 7 7 8 9 9 9 9
11 11 10 11 11 11 9 7 6 5 5 5 6 6 7 8 9 8 8 7 6 7 6 7 7 8 6 5 5 4 4 3 2 4 6 6 6 6 7 8 9 9 10
11 11 11 10 10 10 10 9 9 7 6 6 5 5 6 7 8 8 8 8 7 7 6 8 8 7 6 6 5 6 6 4 4 3 5 6 6 7 7 7 8 9 10
10 10 10 10 10 10 10 9 9 8 6 5 5 5 6 6 7 8 8 7 7 7 8 8 6 8 7 7 6 5 6 6 7 6 5 4 5 5 6 7 6 7 9
9 9 10 10 10 10 10 10 10 8 7 6 6 5 5 5 5 7 8 7 7 7 7 8 7 9 8 8 7 7 6 6 6 6 7 6 5 5 5 5 6 6 8
Wind_Direction
139 128 124 127 123 119 117 117 119 121 121 120 121 120 120 119 117 114 111 110 111 113 113 115 116 118 119 118 118 116 116 117 117 116 113 112 113 113 115 120 121 109 111
134 127 125 127 123 119 117 117 118 119 120 120 121 121 122 120 117 115 113 113 112 112 112 114 114 116 119 119 120 119 119 121 121 119 118 116 114 115 115 111 96 110 116
133 131 135 129 127 121 119 119 118 117 118 119 119 120 121 119 116 115 113 114 113 112 112 113 115 118 118 118 119 119 119 122 123 127 131 122 118 118 115 109 107 116 117
136 136 134 128 127 122 120 120 119 118 118 119 121 120 120 119 119 116 115 115 114 113 114 115 115 118 118 118 120 121 121 123 129 148 136 121 122 121 120 118 120 120 120
133 130 127 132 128 124 120 118 117 118 119 119 119 121 120 120 119 117 116 114 114 114 115 117 118 120 120 121 122 122 123 127 143 159 115 114 116 125 125 123 123 123 123
136 136 130 135 130 126 123 120 119 118 117 117 117 118 121 121 121 121 116 113 112 115 118 119 120 122 122 123 125 126 128 141 164 122 118 123 122 129 130 128 128 128 126
137 133 132 134 131 128 126 125 122 118 116 117 117 118 120 121 122 120 117 116 116 117 120 120 120 121 122 123 126 130 137 159 137 121 123 122 119 129 132 132 131 131 131
136 134 130 135 134 132 132 130 126 123 120 117 116 116 119 120 120 122 121 120 118 118 121 122 122 121 123 126 130 137 148 174 138 129 127 122 122 134 133 132 133 134 137
140 138 141 145 143 140 133 130 129 125 124 123 121 119 120 119 118 121 122 121 120 122 123 123 122 123 126 129 133 137 142 176 145 133 130 123 130 137 136 136 139 141 142
142 141 141 144 140 148 143 137 131 130 131 129 126 125 127 128 126 129 133 123 123 125 124 124 124 127 129 131 134 138 149 181 146 138 133 127 137 143 143 143 144 146 149
152 154 152 147 148 149 145 141 147 145 146 150 142 138 154 143 137 143 118 124 126 126 125 126 128 133 138 139 141 153 173 162 135 134 122 126 147 154 151 149 150 149 151
164 163 159 157 158 157 150 147 157 158 154 161 143 149 146 128 126 122 123 131 131 131 133 131 136 152 167 148 153 177 168 145 144 142 128 137 155 158 155 157 158 159 158
166 168 168 166 169 166 160 160 159 153 152 156 150 150 141 147 145 143 143 148 150 156 150 146 166 167 156 143 164 166 146 158 149 145 137 150 164 168 169 170 171 172 173
171 173 173 170 176 182 175 166 173 172 168 162 155 174 160 157 153 141 152 145 157 153 150 161 159 158 155 154 172 157 163 178 153 138 141 158 174 180 183 184 185 185 187
179 180 178 179 182 181 185 199 182 186 181 170 171 172 176 170 164 154 154 164 171 157 164 173 164 160 165 174 182 174 177 172 170 172 150 164 182 190 191 192 196 197 198
187 186 184 187 189 189 192 199 196 198 190 190 183 176 188 181 167 174 174 178 182 182 174 176 171 176 188 180 188 184 192 188 182 192 180 172 186 196 201 201 204 204 206
191 190 191 191 191 196 201 201 198 208 195 196 189 187 198 200 182 196 193 191 188 180 174 192 188 189 194 190 192 193 200 208 195 199 203 194 186 193 200 206 212 210 211
194 192 196 197 191 195 201 205 205 208 203 205 201 200 204 211 208 213 215 205 186 196 194 188 205 199 196 204 199 208 203 206 212 209 211 209 207 197 194 203 212 213 215
196 195 195 199 198 198 197 207 215 210 217 222 217 215 208 215 215 218 221 208 206 206 210 216 196 209 204 213 216 207 217 214 214 219 219 217 213 217 207 191 203 213 217
196 197 198 197 201 200 201 207 216 218 218 220 221 219 222 224 222 225 221 212 221 214 211 224 215 218 228 227 240 226 230 223 220 222 226 221 216 218 221 212 203 207 212
196 198 200 203 198 201 206 210 209 216 221 221 224 221 223 230 227 223 234 215 226 223 219 216 217 212 217 218 230 236 234 227 226 224 227 228 218 219 220 220 221 217 206
197 200 201 204 204 204 205 212 216 222 230 228 232 225 226 228 230 225 227 231 223 223 222 222 219 229 223 210 227 244 245 223 218 222 218 219 225 221 219 218 221 222 230
199 200 203 204 204 206 205 208 212 216 230 227 225 227 228 228 228 233 232 236 233 228 223 225 223 228 231 227 227 238 259 259 247 209 218 222 222 226 228 225 221 222 224
199 198 201 201 203 204 204 213 218 225 231 235 231 229 231 234 236 232 233 234 236 237 231 232 225 229 235 238 236 236 250 271 269 253 219 213 213 222 231 232 226 219 221
195 194 194 196 202 203 205 211 220 232 237 237 234 234 237 234 237 239 235 234 233 238 237 239 238 234 235 241 245 246 244 244 246 254 260 243 230 226 227 231 235 229 224
190 191 194 193 198 201 204 210 221 232 239 243 239 237 233 228 229 234 235 233 236 240 240 241 243 239 238 243 247 249 246 246 245 248 256 255 252 243 233 236 234 229 229
Height
1545 1545 1545 1546 1547 1548 1549 1550 1550 1551 1552 1553 1554 1555 1555 1556 1557 1557 1558 1559 1560 1561 1561 1562 1563 1564 1565 1566 1567 1567 1568 1569 1570 1571 1572 1572 1573 1574 1575 1576 1577 1578 1578
1546 1546 1546 1548 1549 1550 1551 1551 1552 1553 1554 1555 1556 1557 1558 1558 1559 1560 1560 1561 1562 1563 1563 1564 1565 1566 1566 1567 1568 1569 1570 1571 1572 1573 1574 1575 1575 1576 1577 1578 1579 1580 1580
1548 1548 1548 1549 1551 1552 1552 1553 1554 1555 1556 1557 1558 1559 1560 1560 1561 1562 1563 1563 1564 1565 1565 1566 1567 1567 1568 1569 1570 1571 1572 1573 1574 1575 1576 1578 1578 1578 1579 1580 1581 1581 1582
1550 1551 1551 1551 1552 1553 1554 1555 1556 1557 1558 1559 1560 1560 1561 1562 1563 1564 1564 1565 1566 1566 1567 1568 1568 1569 1570 1571 1571 1572 1573 1575 1576 1577 1580 1580 1580 1580 1581 1582 1583 1583 1584
1552 1553 1552 1553 1554 1555 1556 1557 1558 1559 1560 1561 1562 1562 1563 1564 1565 1565 1566 1567 1567 1568 1569 1569 1570 1571 1571 1572 1573 1574 1575 1577 1578 1580 1581 1582 1582 1582 1583 1584 1584 1585 1586
1553 1555 1554 1555 1556 1557 1558 1559 1560 1561 1562 1563 1563 1564 1565 1565 1566 1567 1568 1568 1569 1569 1570 1571 1571 1572 1573 1574 1575 1576 1577 1578 1580 1582 1583 1583 1584 1584 1584 1585 1586 1587 1588
1556 1557 1556 1557 1558 1559 1560 1561 1562 1562 1563 1564 1565 1566 1566 1567 1568 1568 1569 1569 1570 1571 1571 1572 1573 1574 1575 1576 1577 1578 1579 1580 1583 1584 1584 1585 1585 1585 1586 1587 1588 1588 1589
1557 1559 1558 1558 1559 1561 1562 1563 1563 1564 1565 1565 1566 1567 1568 1568 1569 1569 1570 1571 1572 1572 1573 1574 1575 1575 1576 1577 1578 1579 1580 1581 1584 1586 1586 1587 1586 1587 1588 1588 1589 1590 1591
1559 1560 1561 1561 1561 1562 1563 1564 1565 1565 1566 1567 1567 1568 1569 1570 1570 1571 1572 1572 1573 1574 1575 1575 1576 1577 1578 1579 1580 1581 1582 1583 1586 1587 1588 1588 1587 1588 1589 1589 1590 1591 1592
1560 1561 1562 1564 1564 1565 1565 1565 1566 1566 1567 1568 1569 1569 1570 1571 1571 1572 1573 1574 1575 1575 1576 1577 1578 1578 1579 1580 1581 1582 1583 1584 1587 1588 1589 1588 1588 1589 1590 1590 1591 1592 1592
1560 1562 1563 1564 1565 1566 1568 1566 1567 1567 1568 1569 1570 1570 1571 1573 1574 1574 1575 1575 1576 1577 1577 1578 1579 1580 1581 1581 1582 1583 1584 1587 1588 1589 1589 1589 1589 1590 1591 1591 1592 1593 1593
1560 1562 1563 1565 1566 1567 1568 1568 1569 1570 1570 1571 1572 1572 1573 1574 1575 1576 1575 1576 1577 1578 1578 1579 1580 1581 1582 1584 1584 1585 1587 1588 1588 1589 1589 1589 1590 1590 1591 1592 1593 1593 1594
1561 1562 1563 1565 1566 1567 1568 1569 1570 1571 1571 1572 1572 1573 1574 1575 1576 1577 1577 1578 1578 1579 1580 1580 1581 1583 1585 1585 1586 1587 1588 1589 1589 1590 1589 1589 1590 1591 1591 1592 1593 1594 1595
1561 1562 1563 1564 1565 1566 1568 1569 1570 1571 1572 1573 1572 1573 1575 1576 1576 1577 1578 1579 1579 1580 1581 1582 1583 1584 1585 1585 1586 1587 1587 1589 1590 1590 1589 1589 1590 1591 1591 1592 1593 1594 1595
1560 1562 1563 1563 1564 1565 1566 1568 1570 1571 1572 1573 1573 1573 1574 1576 1577 1578 1578 1578 1580 1581 1581 1582 1583 1583 1584 1585 1586 1587 1588 1588 1589 1590 1590 1589 1590 1591 1591 1592 1592 1593 1594
1559 1561 1562 1563 1564 1565 1566 1567 1569 1571 1571 1573 1574 1574 1575 1576 1577 1578 1578 1578 1580 1581 1582 1582 1583 1583 1584 1585 1586 1586 1587 1588 1588 1589 1590 1589 1589 1590 1590 1591 1592 1592 1593
1558 1560 1561 1563 1564 1565 1566 1568 1569 1570 1572 1573 1574 1574 1575 1576 1576 1577 1579 1579 1580 1580 1581 1581 1582 1584 1584 1585 1585 1586 1587 1587 1588 1588 1589 1589 1589 1589 1589 1590 1591 1591 1592
1557 1559 1560 1562 1563 1564 1566 1567 1569 1570 1571 1572 1573 1574 1574 1575 1576 1577 1578 1579 1579 1580 1581 1581 1582 1583 1584 1584 1585 1585 1586 1586 1586 1586 1587 1588 1588 1589 1588 1588 1589 1590 1590
1556 1558 1559 1561 1562 1564 1565 1566 1567 1568 1569 1571 1572 1573 1574 1574 1575 1576 1577 1578 1578 1579 1580 1581 1582 1582 1583 1583 1584 1584 1584 1585 1584 1585 1586 1586 1586 1587 1587 1586 1587 1588 1588
1555 1556 1558 1559 1561 1562 1563 1564 1566 1567 1568 1569 1570 1571 1572 1573 1574 1575 1576 1576 1577 1578 1578 1579 1580 1580 1581 1581 1583 1583 1583 1583 1583 1583 1584 1584 1584 1584 1585 1585 1585 1586 1586
1553 1554 1556 1558 1559 1560 1561 1563 1564 1565 1566 1567 1568 1569 1570 1571 1572 1573 1574 1575 1575 1576 1577 1578 1578 1579 1580 1580 1581 1581 1581 1581 1581 1581 1582 1582 1582 1582 1583 1583 1583 1584 1584
1551 1553 1554 1555 1557 1558 1559 1560 1561 1563 1564 1565 1566 1566 1568 1569 1570 1572 1572 1573 1574 1574 1575 1575 1576 1577 1578 1578 1579 1579 1579 1580 1578 1579 1579 1579 1579 1580 1580 1580 1580 1581 1581
1549 1550 1552 1553 1555 1556 1557 1559 1559 1560 1561 1563 1563 1564 1565 1566 1567 1568 1569 1571 1571 1572 1573 1573 1574 1574 1575 1576 1577 1577 1577 1576 1577 1577 1576 1576 1576 1577 1577 1578 1578 1578 1578
1547 1549 1550 1551 1553 1554 1555 1556 1558 1559 1559 1560 1561 1562 1562 1563 1564 1565 1567 1567 1568 1569 1570 1570 1571 1572 1572 1573 1574 1574 1575 1575 1575 1574 1574 1574 1574 1574 1574 1575 1575 1575 1575
1545 1546 1548 1549 1550 1552 1553 1554 1555 1557 1557 1558 1558 1559 1559 1560 1561 1562 1563 1564 1565 1566 1566 1567 1568 1568 1569 1570 1570 1571 1571 1571 1572 1572 1572 1572 1571 1571 1571 1571 1571 1572 1572
1543 1544 1546 1546 1548 1549 1550 1552 1553 1554 1555 1555 1556 1556 1557 1558 1559 1559 1560 1561 1561 1562 1563 1563 1564 1564 1565 1566 1566 1567 1568 1568 1568 1568 1568 1568 1568 1568 1568 1568 1568 1568 1568